11/07/2024 07:45:00,0.414
11/07/2024 08:00:00,0.412
11/07/2024 08:15:00,0.411
11/07/2024 08:30:00,0.411
11/07/2024 08:45:00,0.409
11/07/2024 09:00:00,0.409
11/07/2024 09:15:00,0.408
11/07/2024 09:30:00,0.408
11/07/2024 09:45:00,0.407
11/07/2024 10:00:00,0.406
11/07/2024 10:15:00,0.405
11/07/2024 10:30:00,0.405
11/07/2024 10:45:00,0.405
11/07/2024 11:00:00,0.403
11/07/2024 11:15:00,0.403
11/07/2024 11:30:00,0.4
11/07/2024 11:45:00,0.4
11/07/2024 12:00:00,0.399
11/07/2024 12:15:00,0.398
11/07/2024 12:30:00,0.397
11/07/2024 12:45:00,0.397
11/07/2024 13:00:00,0.397
11/07/2024 13:15:00,0.396
11/07/2024 13:30:00,0.395
11/07/2024 13:45:00,0.394
11/07/2024 14:00:00,0.393
11/07/2024 14:15:00,0.392
11/07/2024 14:30:00,0.39
11/07/2024 14:45:00,0.389
11/07/2024 15:00:00,0.388
11/07/2024 15:15:00,0.387
11/07/2024 15:30:00,0.386
11/07/2024 15:45:00,0.386
11/07/2024 16:00:00,0.386
11/07/2024 16:15:00,0.384
11/07/2024 16:30:00,0.384
11/07/2024 16:45:00,0.381
11/07/2024 17:00:00,0.381
11/07/2024 17:15:00,0.379
11/07/2024 17:30:00,0.379
11/07/2024 17:45:00,0.378
11/07/2024 18:00:00,0.376
11/07/2024 18:15:00,0.376
11/07/2024 18:30:00,0.375
11/07/2024 18:45:00,0.375
11/07/2024 19:00:00,0.374
11/07/2024 19:15:00,0.373
11/07/2024 19:30:00,0.373
11/07/2024 19:45:00,0.372
11/07/2024 20:00:00,0.37
11/07/2024 20:15:00,0.37
11/07/2024 20:30:00,0.368
11/07/2024 20:45:00,0.367
11/07/2024 21:00:00,0.367
11/07/2024 21:15:00,0.366
11/07/2024 21:30:00,0.365
11/07/2024 21:45:00,0.365
11/07/2024 22:00:00,0.364
11/07/2024 22:15:00,0.364
11/07/2024 22:30:00,0.364
11/07/2024 22:45:00,0.363
11/07/2024 23:00:00,0.363
11/07/2024 23:15:00,0.362
11/07/2024 23:30:00,0.361
11/07/2024 23:45:00,0.361
12/07/2024 00:00:00,0.36
12/07/2024 00:15:00,0.359
12/07/2024 00:30:00,0.359
12/07/2024 00:45:00,0.357
12/07/2024 01:00:00,0.355
12/07/2024 01:15:00,0.355
12/07/2024 01:30:00,0.355
12/07/2024 01:45:00,0.354
12/07/2024 02:00:00,0.353
12/07/2024 02:15:00,0.353
12/07/2024 02:30:00,0.353
12/07/2024 02:45:00,0.352
12/07/2024 03:00:00,0.352
12/07/2024 03:15:00,0.35
12/07/2024 03:30:00,0.35
12/07/2024 03:45:00,0.35
12/07/2024 04:00:00,0.35
12/07/2024 04:15:00,0.349
12/07/2024 04:30:00,0.349
12/07/2024 04:45:00,0.348
12/07/2024 05:00:00,0.346
12/07/2024 05:15:00,0.346
12/07/2024 05:30:00,0.345
12/07/2024 05:45:00,0.344
12/07/2024 06:00:00,0.344
12/07/2024 06:15:00,0.344
12/07/2024 06:30:00,0.343
12/07/2024 06:45:00,0.343
12/07/2024 07:00:00,0.342
12/07/2024 07:15:00,0.342
12/07/2024 07:30:00,0.342
12/07/2024 07:45:00,0.342
12/07/2024 08:00:00,0.341
12/07/2024 08:15:00,0.34
12/07/2024 08:30:00,0.34
12/07/2024 08:45:00,0.34
12/07/2024 09:00:00,0.34
12/07/2024 09:15:00,0.339
12/07/2024 09:30:00,0.339
12/07/2024 09:45:00,0.338
12/07/2024 10:00:00,0.338
12/07/2024 10:15:00,0.338
12/07/2024 10:30:00,0.337
12/07/2024 10:45:00,0.335
12/07/2024 11:00:00,0.335
12/07/2024 11:15:00,0.335
12/07/2024 11:30:00,0.335
12/07/2024 11:45:00,0.334
12/07/2024 12:00:00,0.334
12/07/2024 12:15:00,0.334
12/07/2024 12:30:00,0.333
12/07/2024 12:45:00,0.333
12/07/2024 13:00:00,0.332
12/07/2024 13:15:00,0.332
12/07/2024 13:30:00,0.332
12/07/2024 13:45:00,0.332
12/07/2024 14:00:00,0.332
12/07/2024 14:15:00,0.332
12/07/2024 14:30:00,0.331
12/07/2024 14:45:00,0.331
12/07/2024 15:00:00,0.33
12/07/2024 15:15:00,0.33
12/07/2024 15:30:00,0.33
12/07/2024 15:45:00,0.329
12/07/2024 16:00:00,0.329
12/07/2024 16:15:00,0.329
12/07/2024 16:30:00,0.329
12/07/2024 16:45:00,0.328
12/07/2024 17:00:00,0.328
12/07/2024 17:15:00,0.327
12/07/2024 17:30:00,0.325
12/07/2024 17:45:00,0.325
12/07/2024 18:00:00,0.325
12/07/2024 18:15:00,0.325
12/07/2024 18:30:00,0.324
12/07/2024 18:45:00,0.323
12/07/2024 19:00:00,0.323
12/07/2024 19:15:00,0.323
12/07/2024 19:30:00,0.323
12/07/2024 19:45:00,0.322
12/07/2024 20:00:00,0.321
12/07/2024 20:15:00,0.321
12/07/2024 20:30:00,0.321
12/07/2024 20:45:00,0.321
12/07/2024 21:00:00,0.321
12/07/2024 21:15:00,0.321
12/07/2024 21:30:00,0.32
12/07/2024 21:45:00,0.32
12/07/2024 22:00:00,0.32
12/07/2024 22:15:00,0.32
12/07/2024 22:30:00,0.319
12/07/2024 22:45:00,0.319
12/07/2024 23:00:00,0.319
12/07/2024 23:15:00,0.319
12/07/2024 23:30:00,0.318
12/07/2024 23:45:00,0.318
13/07/2024 00:00:00,0.317
13/07/2024 00:15:00,0.317
13/07/2024 00:30:00,0.317
13/07/2024 00:45:00,0.316
13/07/2024 01:00:00,0.314
13/07/2024 01:15:00,0.314
13/07/2024 01:30:00,0.314
13/07/2024 01:45:00,0.314
13/07/2024 02:00:00,0.313
13/07/2024 02:15:00,0.313
13/07/2024 02:30:00,0.313
13/07/2024 02:45:00,0.312
13/07/2024 03:00:00,0.312
13/07/2024 03:15:00,0.311
13/07/2024 03:30:00,0.311
13/07/2024 03:45:00,0.311
13/07/2024 04:00:00,0.311
13/07/2024 04:15:00,0.311
13/07/2024 04:30:00,0.311
13/07/2024 04:45:00,0.31
13/07/2024 05:00:00,0.31
13/07/2024 05:15:00,0.31
13/07/2024 05:30:00,0.31
13/07/2024 05:45:00,0.31
13/07/2024 06:00:00,0.31
13/07/2024 06:15:00,0.31
13/07/2024 06:30:00,0.31
13/07/2024 06:45:00,0.31
13/07/2024 07:00:00,0.31
13/07/2024 07:15:00,0.31
13/07/2024 07:30:00,0.31
13/07/2024 07:45:00,0.31
13/07/2024 08:00:00,0.309
13/07/2024 08:15:00,0.309
13/07/2024 08:30:00,0.308
13/07/2024 08:45:00,0.308
13/07/2024 09:00:00,0.308
13/07/2024 09:15:00,0.308
13/07/2024 09:30:00,0.307
13/07/2024 09:45:00,0.306
13/07/2024 10:00:00,0.306
13/07/2024 10:15:00,0.306
13/07/2024 10:30:00,0.306
13/07/2024 10:45:00,0.306
13/07/2024 11:00:00,0.306
13/07/2024 11:15:00,0.305
13/07/2024 11:30:00,0.305
13/07/2024 11:45:00,0.305
13/07/2024 12:00:00,0.305
13/07/2024 12:15:00,0.305
13/07/2024 12:30:00,0.305
13/07/2024 12:45:00,0.305
13/07/2024 13:00:00,0.305
13/07/2024 13:15:00,0.305
13/07/2024 13:30:00,0.305
13/07/2024 13:45:00,0.305
13/07/2024 14:00:00,0.306
13/07/2024 14:15:00,0.306
13/07/2024 14:30:00,0.306
13/07/2024 14:45:00,0.306
13/07/2024 15:00:00,0.306
13/07/2024 15:15:00,0.306
13/07/2024 15:30:00,0.305
13/07/2024 15:45:00,0.305
13/07/2024 16:00:00,0.305
13/07/2024 16:15:00,0.305
13/07/2024 16:30:00,0.305
13/07/2024 16:45:00,0.303
13/07/2024 17:00:00,0.303
13/07/2024 17:15:00,0.303
13/07/2024 17:30:00,0.302
13/07/2024 17:45:00,0.302
13/07/2024 18:00:00,0.302
13/07/2024 18:15:00,0.302
13/07/2024 18:30:00,0.302
13/07/2024 18:45:00,0.302
13/07/2024 19:00:00,0.302
13/07/2024 19:15:00,0.302
13/07/2024 19:30:00,0.302
13/07/2024 19:45:00,0.302
13/07/2024 20:00:00,0.302
13/07/2024 20:15:00,0.302
13/07/2024 20:30:00,0.301
13/07/2024 20:45:00,0.301
13/07/2024 21:00:00,0.301
13/07/2024 21:15:00,0.301
13/07/2024 21:30:00,0.301
13/07/2024 21:45:00,0.301
13/07/2024 22:00:00,0.301
13/07/2024 22:15:00,0.301
13/07/2024 22:30:00,0.301
13/07/2024 22:45:00,0.301
13/07/2024 23:00:00,0.3
13/07/2024 23:15:00,0.3
13/07/2024 23:30:00,0.3
13/07/2024 23:45:00,0.3
14/07/2024 00:00:00,0.3
14/07/2024 00:15:00,0.3
14/07/2024 00:30:00,0.3
14/07/2024 00:45:00,0.3
14/07/2024 01:00:00,0.3
14/07/2024 01:15:00,0.3
14/07/2024 01:30:00,0.3
14/07/2024 01:45:00,0.3
14/07/2024 02:00:00,0.3
14/07/2024 02:15:00,0.3
14/07/2024 02:30:00,0.3
14/07/2024 02:45:00,0.3
14/07/2024 03:00:00,0.3
14/07/2024 03:15:00,0.3
14/07/2024 03:30:00,0.3
14/07/2024 03:45:00,0.3
14/07/2024 04:00:00,0.3
14/07/2024 04:15:00,0.3
14/07/2024 04:30:00,0.3
14/07/2024 04:45:00,0.3
14/07/2024 05:00:00,0.3
14/07/2024 05:15:00,0.3
14/07/2024 05:30:00,0.3
14/07/2024 05:45:00,0.3
14/07/2024 06:00:00,0.299
14/07/2024 06:15:00,0.299
14/07/2024 06:30:00,0.299
14/07/2024 06:45:00,0.299
14/07/2024 07:00:00,0.299
14/07/2024 07:15:00,0.299
14/07/2024 07:30:00,0.299
14/07/2024 07:45:00,0.299
14/07/2024 08:00:00,0.299
14/07/2024 08:15:00,0.299
14/07/2024 08:30:00,0.299
14/07/2024 08:45:00,0.299
14/07/2024 09:00:00,0.299
14/07/2024 09:15:00,0.299
14/07/2024 09:30:00,0.299
14/07/2024 09:45:00,0.299
14/07/2024 10:00:00,0.299
14/07/2024 10:15:00,0.299
14/07/2024 10:30:00,0.298
14/07/2024 10:45:00,0.298
14/07/2024 11:00:00,0.298
14/07/2024 11:15:00,0.298
14/07/2024 11:30:00,0.298
14/07/2024 11:45:00,0.298
14/07/2024 12:00:00,0.298
14/07/2024 12:15:00,0.298
14/07/2024 12:30:00,0.297
14/07/2024 12:45:00,0.297
14/07/2024 13:00:00,0.297
14/07/2024 13:15:00,0.297
14/07/2024 13:30:00,0.297
14/07/2024 13:45:00,0.297
14/07/2024 14:00:00,0.296
14/07/2024 14:15:00,0.296
14/07/2024 14:30:00,0.296
14/07/2024 14:45:00,0.296
14/07/2024 15:00:00,0.296
14/07/2024 15:15:00,0.296
14/07/2024 15:30:00,0.296
14/07/2024 15:45:00,0.296
14/07/2024 16:00:00,0.296
14/07/2024 16:15:00,0.296
14/07/2024 16:30:00,0.296
14/07/2024 16:45:00,0.296
14/07/2024 17:00:00,0.296
14/07/2024 17:15:00,0.296
14/07/2024 17:30:00,0.296
14/07/2024 17:45:00,0.296
14/07/2024 18:00:00,0.295
14/07/2024 18:15:00,0.295
14/07/2024 18:30:00,0.295
14/07/2024 18:45:00,0.295
14/07/2024 19:00:00,0.294
14/07/2024 19:15:00,0.294
14/07/2024 19:30:00,0.294
14/07/2024 19:45:00,0.294
14/07/2024 20:00:00,0.294
14/07/2024 20:15:00,0.294
14/07/2024 20:30:00,0.294
14/07/2024 20:45:00,0.294
14/07/2024 21:00:00,0.294
14/07/2024 21:15:00,0.294
14/07/2024 21:30:00,0.294
14/07/2024 21:45:00,0.294
14/07/2024 22:00:00,0.294
14/07/2024 22:15:00,0.294
14/07/2024 22:30:00,0.294
14/07/2024 22:45:00,0.294
14/07/2024 23:00:00,0.294
14/07/2024 23:15:00,0.294
14/07/2024 23:30:00,0.294
14/07/2024 23:45:00,0.294
15/07/2024 00:00:00,0.294
15/07/2024 00:15:00,0.294
15/07/2024 00:30:00,0.294
15/07/2024 00:45:00,0.294
15/07/2024 01:00:00,0.294
15/07/2024 01:15:00,0.294
15/07/2024 01:30:00,0.294
15/07/2024 01:45:00,0.294
15/07/2024 02:00:00,0.294
15/07/2024 02:15:00,0.294
15/07/2024 02:30:00,0.294
15/07/2024 02:45:00,0.292
15/07/2024 03:00:00,0.294
15/07/2024 03:15:00,0.292
15/07/2024 03:30:00,0.292
15/07/2024 03:45:00,0.292
15/07/2024 04:00:00,0.292
15/07/2024 04:15:00,0.292
15/07/2024 04:30:00,0.292
15/07/2024 04:45:00,0.292
15/07/2024 05:00:00,0.292
15/07/2024 05:15:00,0.292
15/07/2024 05:30:00,0.292
15/07/2024 05:45:00,0.292
15/07/2024 06:00:00,0.292
15/07/2024 06:15:00,0.292
15/07/2024 06:30:00,0.292
15/07/2024 06:45:00,0.292
15/07/2024 07:00:00,0.291
15/07/2024 07:15:00,0.292
15/07/2024 07:30:00,0.292
15/07/2024 07:45:00,0.291
15/07/2024 08:00:00,0.291
15/07/2024 08:15:00,0.291
15/07/2024 08:30:00,0.291
15/07/2024 08:45:00,0.291
15/07/2024 09:00:00,0.291
15/07/2024 09:15:00,0.291
15/07/2024 09:30:00,0.291
15/07/2024 09:45:00,0.291
15/07/2024 10:00:00,0.291
15/07/2024 10:15:00,0.291
15/07/2024 10:30:00,0.291
15/07/2024 10:45:00,0.291
15/07/2024 11:00:00,0.291
15/07/2024 11:15:00,0.291
15/07/2024 11:30:00,0.291
15/07/2024 11:45:00,0.291
15/07/2024 12:00:00,0.291
15/07/2024 12:15:00,0.29
15/07/2024 12:30:00,0.29
15/07/2024 12:45:00,0.289
15/07/2024 13:00:00,0.289
15/07/2024 13:15:00,0.289
15/07/2024 13:30:00,0.289
15/07/2024 13:45:00,0.289
15/07/2024 14:00:00,0.289
15/07/2024 14:15:00,0.288
15/07/2024 14:30:00,0.288
15/07/2024 14:45:00,0.288
15/07/2024 15:00:00,0.288
15/07/2024 15:15:00,0.288
15/07/2024 15:30:00,0.288
15/07/2024 15:45:00,0.288
15/07/2024 16:00:00,0.288
15/07/2024 16:15:00,0.288
15/07/2024 16:30:00,0.288
15/07/2024 16:45:00,0.288
15/07/2024 17:00:00,0.288
15/07/2024 17:15:00,0.288
15/07/2024 17:30:00,0.288
15/07/2024 17:45:00,0.288
15/07/2024 18:00:00,0.288
15/07/2024 18:15:00,0.288
15/07/2024 18:30:00,0.288
15/07/2024 18:45:00,0.288
15/07/2024 19:00:00,0.288
15/07/2024 19:15:00,0.288
15/07/2024 19:30:00,0.288
15/07/2024 19:45:00,0.288
15/07/2024 20:00:00,0.288
15/07/2024 20:15:00,0.288
15/07/2024 20:30:00,0.287
15/07/2024 20:45:00,0.287
15/07/2024 21:00:00,0.287
15/07/2024 21:15:00,0.286
15/07/2024 21:30:00,0.285
15/07/2024 21:45:00,0.285
15/07/2024 22:00:00,0.285
15/07/2024 22:15:00,0.285
15/07/2024 22:30:00,0.285
15/07/2024 22:45:00,0.284
15/07/2024 23:00:00,0.284
15/07/2024 23:15:00,0.284
15/07/2024 23:30:00,0.283
15/07/2024 23:45:00,0.283
16/07/2024 00:00:00,0.283
16/07/2024 00:15:00,0.283
16/07/2024 00:30:00,0.283
16/07/2024 00:45:00,0.283
16/07/2024 01:00:00,0.283
16/07/2024 01:15:00,0.283
16/07/2024 01:30:00,0.283
16/07/2024 01:45:00,0.281
16/07/2024 02:00:00,0.281
16/07/2024 02:15:00,0.281
16/07/2024 02:30:00,0.281
16/07/2024 02:45:00,0.281
16/07/2024 03:00:00,0.281
16/07/2024 03:15:00,0.281
16/07/2024 03:30:00,0.281
16/07/2024 03:45:00,0.281
16/07/2024 04:00:00,0.281
16/07/2024 04:15:00,0.281
16/07/2024 04:30:00,0.281
16/07/2024 04:45:00,0.281
16/07/2024 05:00:00,0.281
16/07/2024 05:15:00,0.281
16/07/2024 05:30:00,0.281
16/07/2024 05:45:00,0.281
16/07/2024 06:00:00,0.281
16/07/2024 06:15:00,0.281
